TimeAKDT,TemperatureF,Dew PointF,Humidity,Sea Level PressureIn,VisibilityMPH,Wind Direction,Wind SpeedMPH,Gust SpeedMPH,PrecipitationIn,Events,Conditions,WindDirDegrees,DateUTC
12:54 AM,61.0,45.0,56,29.58,10.0,NW,9.2,-,N/A,,Overcast,310,2013-09-16 08:54:00
1:54 AM,59.0,48.0,67,29.58,10.0,NW,10.4,-,0.00,Rain,Light Rain,310,2013-09-16 09:54:00
2:54 AM,55.0,50.0,83,29.59,8.0,NW,8.1,17.3,0.08,Rain,Light Rain,320,2013-09-16 10:54:00
3:54 AM,54.0,51.1,90,29.58,10.0,NW,11.5,18.4,0.01,Rain,Light Rain,310,2013-09-16 11:54:00
4:54 AM,53.1,51.1,93,29.58,10.0,WNW,8.1,-,0.01,Rain,Light Rain,300,2013-09-16 12:54:00
5:54 AM,53.1,52.0,96,29.57,7.0,West,5.8,-,0.02,Rain,Light Rain,260,2013-09-16 13:54:00
6:29 AM,51.8,50.0,94,29.57,8.0,Calm,Calm,-,0.02,Rain,Light Rain,0,2013-09-16 14:29:00
6:54 AM,51.1,50.0,96,29.57,7.0,SE,3.5,-,0.04,Rain,Light Rain,140,2013-09-16 14:54:00
7:04 AM,51.8,51.8,100,29.57,6.0,ENE,3.5,-,0.01,Rain,Rain,70,2013-09-16 15:04:00
7:16 AM,51.8,51.8,100,29.57,8.0,East,4.6,-,0.02,Rain,Light Rain,80,2013-09-16 15:16:00
7:46 AM,51.8,51.8,100,29.56,4.0,East,3.5,-,0.06,Rain,Rain,80,2013-09-16 15:46:00
7:54 AM,52.0,51.1,97,29.57,4.0,Calm,Calm,-,0.07,Rain,Rain,0,2013-09-16 15:54:00
8:05 AM,51.8,51.8,100,29.57,4.0,East,3.5,-,0.03,Rain,Rain,100,2013-09-16 16:05:00
8:54 AM,53.1,51.1,93,29.58,7.0,ENE,8.1,-,0.07,Rain,Rain,70,2013-09-16 16:54:00
9:54 AM,53.1,51.1,93,29.59,10.0,ENE,5.8,-,0.03,Rain,Light Rain,70,2013-09-16 17:54:00
10:54 AM,53.1,51.1,93,29.60,10.0,East,8.1,-,0.00,Rain,Light Rain,80,2013-09-16 18:54:00
11:04 AM,53.6,51.8,94,29.58,9.0,ENE,9.2,-,0.01,Rain,Light Rain,70,2013-09-16 19:04:00
11:23 AM,53.6,51.8,94,29.58,10.0,East,8.1,-,0.01,Rain,Light Rain,100,2013-09-16 19:23:00
11:54 AM,54.0,52.0,93,29.60,10.0,East,9.2,16.1,0.01,Rain,Light Rain,80,2013-09-16 19:54:00
12:30 PM,55.4,51.8,88,29.59,10.0,ESE,12.7,21.9,0.00,Rain,Light Rain,110,2013-09-16 20:30:00
12:54 PM,54.0,51.1,90,29.61,10.0,ESE,9.2,19.6,0.00,Rain,Light Rain,110,2013-09-16 20:54:00
1:05 PM,53.6,51.8,94,29.60,5.0,East,10.4,16.1,0.02,Rain,Rain,80,2013-09-16 21:05:00
1:42 PM,53.6,51.8,94,29.60,10.0,East,11.5,17.3,0.02,Rain,Light Rain,90,2013-09-16 21:42:00
1:54 PM,54.0,51.1,90,29.61,10.0,East,8.1,-,0.02,Rain,Light Rain,90,2013-09-16 21:54:00
2:54 PM,55.0,51.1,86,29.61,10.0,East,9.2,16.1,0.00,Rain,Light Rain,90,2013-09-16 22:54:00
3:54 PM,57.0,48.9,74,29.60,10.0,East,10.4,17.3,0.00,,Mostly Cloudy,90,2013-09-16 23:54:00
4:54 PM,55.9,48.0,75,29.61,10.0,ENE,10.4,17.3,0.00,,Overcast,70,2013-09-17 00:54:00
5:54 PM,55.0,46.9,74,29.62,10.0,East,8.1,17.3,0.00,,Overcast,80,2013-09-17 01:54:00
6:54 PM,54.0,46.9,77,29.62,10.0,East,11.5,17.3,N/A,,Overcast,80,2013-09-17 02:54:00
7:54 PM,54.0,45.0,72,29.63,10.0,ENE,9.2,19.6,N/A,,Mostly Cloudy,60,2013-09-17 03:54:00
8:54 PM,53.1,45.0,74,29.64,10.0,East,9.2,17.3,N/A,,Overcast,80,2013-09-17 04:54:00
9:54 PM,53.1,45.0,74,29.65,10.0,East,10.4,16.1,N/A,,Scattered Clouds,80,2013-09-17 05:54:00
10:54 PM,53.1,46.0,77,29.65,10.0,ENE,8.1,-,N/A,,Mostly Cloudy,70,2013-09-17 06:54:00
11:24 PM,53.6,46.4,77,29.64,10.0,ENE,8.1,-,N/A,,Overcast,70,2013-09-17 07:24:00
11:49 PM,53.6,46.4,77,29.65,10.0,East,5.8,-,N/A,,Overcast,80,2013-09-17 07:49:00
11:54 PM,53.1,46.0,77,29.65,10.0,East,9.2,-,N/A,,Overcast,80,2013-09-17 07:54:00